COMSATBW-1

Last updated on Tue Sep 16 2025 00:02:46 GMT+0000 (Coordinated Universal Time)

1 35943U 09054B 25258.59705601 .00000008 00000+0 00000+0 0 9993 2 35943 0.0140 201.6495 0001403 340.9613 90.1459 1.00270873 58540
UTC large
Height (km)
Speed (km/s)
/
Latitude / Longitude
Inclination (degrees)
Orbital Period (minutes)
Azimuth
Elevation
Range (km)
Doppler Factor

Next 0 passes for location: London (51.5072 / 0.1276)

Sorry there are no passes over London.